When you browse on this site, cookies collect data to enhance your experience and personalize the content and advertising you see.
Visit our Privacy Policy to learn more. By continuing to use the site, you agree to this use of cookies and data.
  • In Spain
  • List of Countries
  • For 7 days
  • Water Temperature
  • Weather Map
  • Weather Widgets
  • user-avatar
    Login

    Hourly Weather Cervinia

    Today, 22 August, Thursday

    Time Temperature Precipitation Wind Pressure Humidity
    00:00 +15°C° 0 mm 1 mps 676 mmHg 87%
    01:00 +15°C° 0 mm 1 mps 676 mmHg 87%
    02:00 +15°C° 0 mm 1 mps 675 mmHg 88%
    03:00 +14°C° 0 mm 1 mps 675 mmHg 88%
    04:00 +15°C° 0 mm 1 mps 676 mmHg 87%
    05:00 +16°C° 0 mm 1 mps 676 mmHg 86%
    06:00 +18°C° 0 mm 1 mps 676 mmHg 85%
    07:00 +20°C° 0.1 mm 1 mps 677 mmHg 79%
    08:00 +21°C° 0.1 mm 1 mps 677 mmHg 73%
    09:00 +21°C° 0.1 mm 0 mps 678 mmHg 67%
    10:00 +23°C° 0.6 mm 1 mps 678 mmHg 65%
    11:00 +24°C° 0.6 mm 1 mps 678 mmHg 63%
    12:00 +24°C° 0.6 mm 2 mps 678 mmHg 61%
    13:00 +24°C° 0.9 mm 2 mps 677 mmHg 62%
    14:00 +24°C° 0.9 mm 2 mps 677 mmHg 63%
    15:00 +24°C° 0.9 mm 2 mps 677 mmHg 64%
    16:00 +23°C° 0.9 mm 1 mps 677 mmHg 71%
    17:00 +22°C° 0.9 mm 1 mps 676 mmHg 79%
    18:00 +20°C° 0.9 mm 1 mps 676 mmHg 86%
    19:00 +19°C° 0.3 mm 1 mps 676 mmHg 86%
    20:00 +18°C° 0.3 mm 1 mps 676 mmHg 85%
    21:00 +16°C° 0.3 mm 1 mps 676 mmHg 85%
    22:00 +16°C° 0 mm 1 mps 676 mmHg 84%
    23:00 +16°C° 0 mm 1 mps 676 mmHg 84%

    Tomorrow, 23 August, Friday

    Time Temperature Precipitation Wind Pressure Humidity
    00:00 +15°C° 0 mm 1 mps 676 mmHg 84%
    01:00 +15°C° 0 mm 1 mps 676 mmHg 84%
    02:00 +15°C° 0 mm 1 mps 676 mmHg 85%
    03:00 +15°C° 0 mm 1 mps 675 mmHg 85%
    04:00 +16°C° 0 mm 1 mps 676 mmHg 84%
    05:00 +18°C° 0 mm 1 mps 676 mmHg 83%
    06:00 +19°C° 0 mm 1 mps 676 mmHg 82%
    07:00 +20°C° 0 mm 1 mps 677 mmHg 76%
    08:00 +22°C° 0 mm 1 mps 677 mmHg 70%
    09:00 +24°C° 0 mm 1 mps 678 mmHg 64%
    10:00 +24°C° 0.5 mm 1 mps 678 mmHg 64%
    11:00 +24°C° 0.5 mm 1 mps 677 mmHg 63%
    12:00 +25°C° 0.5 mm 1 mps 677 mmHg 63%
    13:00 +25°C° 1.1 mm 1 mps 677 mmHg 66%
    14:00 +24°C° 1.1 mm 1 mps 676 mmHg 69%
    15:00 +24°C° 1.1 mm 1 mps 676 mmHg 71%
    16:00 +23°C° 0.8 mm 1 mps 676 mmHg 77%
    17:00 +21°C° 0.8 mm 1 mps 676 mmHg 82%
    18:00 +20°C° 0.8 mm 1 mps 675 mmHg 88%
    19:00 +19°C° 0.2 mm 1 mps 675 mmHg 89%
    20:00 +18°C° 0.2 mm 1 mps 675 mmHg 89%
    21:00 +16°C° 0.2 mm 1 mps 675 mmHg 90%
    22:00 +16°C° 0 mm 1 mps 675 mmHg 90%
    23:00 +16°C° 0 mm 1 mps 675 mmHg 90%

    Day after tomorrow, 24 August, Saturday

    Time Temperature Precipitation Wind Pressure Humidity
    00:00 +16°C° 0 mm 1 mps 675 mmHg 90%
    01:00 +15°C° 0 mm 1 mps 675 mmHg 89%
    02:00 +15°C° 0 mm 1 mps 675 mmHg 88%
    03:00 +15°C° 0 mm 1 mps 674 mmHg 87%
    04:00 +16°C° 0 mm 1 mps 675 mmHg 85%
    05:00 +18°C° 0 mm 1 mps 675 mmHg 84%
    06:00 +19°C° 0 mm 1 mps 675 mmHg 83%
    07:00 +20°C° 0 mm 1 mps 675 mmHg 77%
    08:00 +22°C° 0 mm 1 mps 676 mmHg 71%
    09:00 +24°C° 0 mm 1 mps 676 mmHg 64%
    10:00 +24°C° 0.3 mm 1 mps 676 mmHg 63%
    11:00 +25°C° 0.3 mm 1 mps 676 mmHg 62%
    12:00 +26°C° 0.3 mm 1 mps 676 mmHg 61%
    13:00 +25°C° 1.1 mm 1 mps 676 mmHg 63%
    14:00 +25°C° 1.1 mm 1 mps 675 mmHg 65%
    15:00 +25°C° 1.1 mm 2 mps 675 mmHg 67%
    16:00 +24°C° 1.1 mm 1 mps 675 mmHg 74%
    17:00 +22°C° 1.1 mm 1 mps 674 mmHg 80%
    18:00 +21°C° 1.1 mm 1 mps 674 mmHg 87%
    19:00 +18°C° 0.2 mm 0 mps 674 mmHg 87%
    20:00 +17°C° 0.2 mm 0 mps 674 mmHg 88%
    21:00 +16°C° 0.2 mm 0 mps 674 mmHg 88%
    22:00 +16°C° 0 mm 0 mps 674 mmHg 88%
    23:00 +16°C° 0 mm 1 mps 674 mmHg 88%

    25 August, Sunday

    Time Temperature Precipitation Wind Pressure Humidity
    00:00 +16°C° 0 mm 1 mps 674 mmHg 88%
    01:00 +16°C° 0 mm 1 mps 673 mmHg 88%
    02:00 +16°C° 0 mm 1 mps 673 mmHg 88%
    03:00 +15°C° 0 mm 1 mps 673 mmHg 88%
    04:00 +16°C° 0 mm 1 mps 673 mmHg 87%
    05:00 +18°C° 0 mm 1 mps 674 mmHg 85%
    06:00 +17°C° 0 mm 0 mps 674 mmHg 84%
    07:00 +19°C° 0 mm 0 mps 675 mmHg 75%
    08:00 +21°C° 0 mm 0 mps 675 mmHg 67%
    09:00 +25°C° 0 mm 1 mps 676 mmHg 58%
    10:00 +25°C° 0.5 mm 1 mps 676 mmHg 56%
    11:00 +26°C° 0.5 mm 1 mps 675 mmHg 54%
    12:00 +27°C° 0.5 mm 2 mps 675 mmHg 52%
    13:00 +26°C° 0.7 mm 2 mps 675 mmHg 52%
    14:00 +26°C° 0.7 mm 2 mps 675 mmHg 53%
    15:00 +26°C° 0.7 mm 2 mps 675 mmHg 54%
    16:00 +24°C° 0.3 mm 1 mps 674 mmHg 60%
    17:00 +23°C° 0.3 mm 1 mps 674 mmHg 67%
    18:00 +21°C° 0.3 mm 1 mps 674 mmHg 73%
    19:00 +20°C° 0 mm 1 mps 674 mmHg 74%
    20:00 +19°C° 0 mm 1 mps 674 mmHg 74%
    21:00 +18°C° 0 mm 1 mps 674 mmHg 74%
    22:00 +18°C° 0 mm 1 mps 674 mmHg 74%
    23:00 +16°C° 0 mm 1 mps 674 mmHg 75%

    26 August, Monday

    Time Temperature Precipitation Wind Pressure Humidity
    00:00 +16°C° 0 mm 1 mps 674 mmHg 75%
    01:00 +16°C° 0 mm 1 mps 674 mmHg 76%
    02:00 +16°C° 0 mm 1 mps 674 mmHg 76%
    03:00 +16°C° 0 mm 1 mps 674 mmHg 77%
    04:00 +18°C° 0 mm 1 mps 674 mmHg 77%
    05:00 +19°C° 0 mm 1 mps 675 mmHg 77%
    06:00 +20°C° 0 mm 1 mps 675 mmHg 77%
    07:00 +22°C° 0 mm 1 mps 676 mmHg 69%
    08:00 +24°C° 0 mm 1 mps 676 mmHg 62%
    09:00 +25°C° 0 mm 1 mps 677 mmHg 55%
    10:00 +26°C° 0.3 mm 1 mps 677 mmHg 54%
    11:00 +27°C° 0.3 mm 1 mps 677 mmHg 54%
    12:00 +27°C° 0.3 mm 1 mps 676 mmHg 53%
    13:00 +27°C° 0.7 mm 1 mps 676 mmHg 56%
    14:00 +26°C° 0.7 mm 2 mps 676 mmHg 59%
    15:00 +26°C° 0.7 mm 2 mps 676 mmHg 61%
    16:00 +25°C° 1 mm 1 mps 675 mmHg 69%
    17:00 +23°C° 1 mm 1 mps 675 mmHg 78%
    18:00 +20°C° 1 mm 0 mps 675 mmHg 86%
    19:00 +21°C° 0.4 mm 1 mps 675 mmHg 85%
    20:00 +20°C° 0.4 mm 1 mps 675 mmHg 85%
    21:00 +19°C° 0.4 mm 1 mps 675 mmHg 84%
    22:00 +19°C° 0 mm 1 mps 675 mmHg 84%
    23:00 +18°C° 0 mm 1 mps 675 mmHg 84%

    27 August, Tuesday

    Time Temperature Precipitation Wind Pressure Humidity
    00:00 +18°C° 0 mm 1 mps 674 mmHg 84%
    01:00 +16°C° 0.1 mm 1 mps 674 mmHg 83%
    02:00 +16°C° 0.1 mm 1 mps 674 mmHg 83%
    03:00 +16°C° 0.1 mm 1 mps 674 mmHg 82%
    04:00 +18°C° 0 mm 1 mps 674 mmHg 83%
    05:00 +18°C° 0 mm 1 mps 674 mmHg 83%
    06:00 +19°C° 0 mm 1 mps 675 mmHg 84%
    07:00 +21°C° 0 mm 1 mps 675 mmHg 78%
    08:00 +23°C° 0 mm 1 mps 675 mmHg 71%
    09:00 +24°C° 0 mm 1 mps 675 mmHg 65%
    10:00 +25°C° 0.4 mm 1 mps 675 mmHg 64%
    11:00 +25°C° 0.4 mm 2 mps 675 mmHg 62%
    12:00 +26°C° 0.4 mm 2 mps 675 mmHg 60%
    13:00 +26°C° 0.8 mm 2 mps 674 mmHg 64%
    14:00 +25°C° 0.8 mm 2 mps 674 mmHg 67%
    15:00 +25°C° 0.8 mm 2 mps 673 mmHg 70%
    16:00 +23°C° 0.7 mm 2 mps 673 mmHg 76%
    17:00 +21°C° 0.7 mm 2 mps 673 mmHg 82%
    18:00 +19°C° 0.7 mm 2 mps 673 mmHg 88%
    19:00 +19°C° 0.3 mm 2 mps 673 mmHg 88%
    20:00 +18°C° 0.3 mm 2 mps 673 mmHg 88%
    21:00 +18°C° 0.3 mm 2 mps 673 mmHg 88%
    22:00 +18°C° 0.3 mm 2 mps 673 mmHg 88%
    23:00 +18°C° 0.3 mm 2 mps 673 mmHg 88%
    Show more